Year,Month,Day,Hour,Minute,Value (Times are PST for temperature in C)
2014,12,11,01,11,9.40
2014,12,11,01,12,9.40
2014,12,11,01,13,9.40
2014,12,11,01,14,9.30
2014,12,11,01,15,9.30
2014,12,11,01,16,9.30
2014,12,11,01,17,9.30
2014,12,11,01,18,9.30
2014,12,11,01,19,9.30
2014,12,11,01,20,9.20
2014,12,11,01,21,9.20
2014,12,11,01,22,9.20
2014,12,11,01,23,9.10
2014,12,11,01,24,9.10
2014,12,11,01,25,9.10
2014,12,11,01,26,9.10
2014,12,11,01,27,9.10
2014,12,11,01,28,9.10
2014,12,11,01,29,9.10
2014,12,11,01,30,9.10
2014,12,11,01,31,9.10
2014,12,11,01,32,9.20
2014,12,11,01,33,9.20
2014,12,11,01,34,9.20
2014,12,11,01,35,9.20
2014,12,11,01,36,9.10
2014,12,11,01,37,9.10
2014,12,11,01,38,9.10
2014,12,11,01,39,9.10
2014,12,11,01,40,9.10
2014,12,11,01,41,9.10
2014,12,11,01,42,9.00
2014,12,11,01,43,9.00
2014,12,11,01,44,9.00
2014,12,11,01,45,8.90
2014,12,11,01,46,8.90
2014,12,11,01,47,8.90
2014,12,11,01,48,8.90
2014,12,11,01,49,8.90
2014,12,11,01,50,8.80
2014,12,11,01,51,8.80
2014,12,11,01,52,8.80
2014,12,11,01,53,8.80
2014,12,11,01,54,8.80
2014,12,11,01,55,8.80
2014,12,11,01,56,8.80
2014,12,11,01,57,8.80
2014,12,11,01,58,8.80
2014,12,11,01,59,8.80
2014,12,11,02,00,8.80
2014,12,11,02,01,8.80
2014,12,11,02,02,8.70
2014,12,11,02,03,8.70
2014,12,11,02,04,8.70
2014,12,11,02,05,8.70
2014,12,11,02,06,8.70
2014,12,11,02,07,8.70
2014,12,11,02,08,8.70
2014,12,11,02,09,8.60
2014,12,11,02,10,8.60
2014,12,11,02,11,8.60
2014,12,11,02,12,8.50
2014,12,11,02,13,8.50
2014,12,11,02,14,8.40
2014,12,11,02,15,8.40
2014,12,11,02,16,8.40
2014,12,11,02,17,8.30
2014,12,11,02,18,8.30
2014,12,11,02,19,8.30
2014,12,11,02,20,8.30
2014,12,11,02,21,8.30
2014,12,11,02,22,8.20
2014,12,11,02,23,8.20
2014,12,11,02,24,8.20
2014,12,11,02,25,8.20
2014,12,11,02,26,8.20
2014,12,11,02,27,8.20
2014,12,11,02,28,8.20
2014,12,11,02,29,8.20
2014,12,11,02,30,8.20
2014,12,11,02,31,8.20
2014,12,11,02,32,8.20
2014,12,11,02,33,8.20
2014,12,11,02,34,8.20
2014,12,11,02,35,8.20
2014,12,11,02,36,8.20
2014,12,11,02,37,8.20
2014,12,11,02,38,8.20
2014,12,11,02,39,8.20
2014,12,11,02,40,8.20
2014,12,11,02,41,8.20
2014,12,11,02,42,8.20
2014,12,11,02,43,8.20
2014,12,11,02,44,8.10
2014,12,11,02,45,8.10
2014,12,11,02,46,8.10
2014,12,11,02,47,8.10
2014,12,11,02,48,8.00
2014,12,11,02,49,8.00
2014,12,11,02,50,8.00
2014,12,11,02,51,8.00
2014,12,11,04,51,7.70
2014,12,11,04,52,7.70
2014,12,11,04,53,7.70
2014,12,11,04,54,7.70
2014,12,11,04,55,7.70
2014,12,11,04,56,7.70
2014,12,11,04,57,7.70
2014,12,11,04,58,7.70
2014,12,11,04,59,7.70
2014,12,11,05,00,7.70
2014,12,11,05,01,7.70
2014,12,11,05,02,7.70
2014,12,11,05,03,7.70
2014,12,11,05,04,7.70
2014,12,11,05,05,7.70
2014,12,11,05,06,7.70
2014,12,11,05,07,7.70
2014,12,11,05,08,7.70
2014,12,11,05,09,7.70
2014,12,11,05,10,7.70
2014,12,11,05,11,7.70
2014,12,11,05,12,7.70
2014,12,11,05,13,7.70
2014,12,11,05,14,7.70
2014,12,11,05,15,7.70
2014,12,11,05,16,7.80
2014,12,11,05,17,7.80
2014,12,11,05,18,7.80
2014,12,11,05,19,7.80
2014,12,11,05,20,7.80
2014,12,11,05,21,7.80
2014,12,11,05,22,7.80
2014,12,11,05,23,7.80
2014,12,11,05,24,7.80
2014,12,11,05,25,7.80
2014,12,11,05,26,7.80
2014,12,11,05,27,7.80
2014,12,11,05,28,7.80
2014,12,11,05,29,7.80
2014,12,11,05,30,7.80
2014,12,11,05,31,7.80
2014,12,11,05,32,7.80
2014,12,11,05,33,7.80
2014,12,11,05,34,7.80
2014,12,11,05,35,7.80
2014,12,11,05,36,7.80
2014,12,11,05,37,7.80
2014,12,11,05,38,7.80
2014,12,11,05,39,7.80
2014,12,11,05,40,7.80
2014,12,11,05,41,7.80
2014,12,11,05,42,7.80
2014,12,11,05,43,7.80
2014,12,11,05,44,7.80
2014,12,11,05,45,7.80
2014,12,11,05,46,7.80
2014,12,11,05,47,7.80
2014,12,11,05,48,7.80
2014,12,11,05,49,7.80
2014,12,11,05,50,7.80
2014,12,11,05,51,7.80
2014,12,11,05,52,7.90
2014,12,11,05,53,7.90
2014,12,11,05,54,7.90
2014,12,11,05,55,7.90
2014,12,11,05,56,7.90
2014,12,11,05,57,7.90
2014,12,11,05,58,7.90
2014,12,11,05,59,8.00
2014,12,11,06,00,8.00
2014,12,11,06,01,8.00
2014,12,11,06,02,8.00
2014,12,11,06,03,8.00
2014,12,11,06,04,8.00
2014,12,11,06,05,8.00
2014,12,11,06,06,8.00
2014,12,11,06,07,8.00
2014,12,11,06,08,8.00
2014,12,11,06,09,8.10
2014,12,11,06,10,8.10
2014,12,11,06,11,8.10
2014,12,11,06,12,8.10
2014,12,11,06,13,8.00
2014,12,11,06,14,8.00
2014,12,11,06,15,8.10
2014,12,11,06,16,8.10
2014,12,11,06,17,8.10
2014,12,11,06,18,8.10
2014,12,11,06,19,8.10
2014,12,11,06,20,8.10
2014,12,11,06,21,8.10
2014,12,11,06,22,8.10
2014,12,11,06,23,8.10
2014,12,11,06,24,8.10
2014,12,11,06,25,8.10
2014,12,11,06,26,8.10
2014,12,11,06,27,8.10
2014,12,11,06,28,8.10
2014,12,11,06,29,8.10
2014,12,11,06,30,8.10
2014,12,11,06,31,8.10
2014,12,11,06,32,8.10
2014,12,11,06,33,8.10
2014,12,11,06,34,8.10
2014,12,11,06,35,8.10
2014,12,11,06,36,8.10
2014,12,11,06,37,8.10
2014,12,11,06,38,8.10
2014,12,11,06,39,8.00
2014,12,11,06,40,8.00
2014,12,11,06,41,8.00
2014,12,11,06,42,8.00
2014,12,11,06,43,8.00
2014,12,11,06,44,8.00
2014,12,11,06,45,8.00
2014,12,11,06,46,8.00
2014,12,11,06,47,8.00
2014,12,11,06,48,8.00
2014,12,11,06,49,8.00
2014,12,11,06,50,8.00
2014,12,11,06,51,8.00
2014,12,11,06,52,8.00
2014,12,11,06,53,8.00
2014,12,11,06,54,8.00
2014,12,11,06,55,8.00
2014,12,11,06,56,8.00
2014,12,11,06,57,8.00
2014,12,11,06,58,8.00
2014,12,11,06,59,8.00
2014,12,11,07,00,8.00
2014,12,11,07,01,8.00
2014,12,11,07,02,8.00
2014,12,11,07,03,8.00
2014,12,11,07,04,8.00
2014,12,11,07,05,8.00
2014,12,11,07,06,8.00
2014,12,11,07,07,7.90
2014,12,11,07,08,7.90
2014,12,11,07,09,7.90
2014,12,11,07,10,7.90
2014,12,11,07,11,7.90
2014,12,11,07,12,7.90
2014,12,11,07,13,7.90
2014,12,11,07,14,7.90
2014,12,11,07,15,7.90
2014,12,11,07,16,7.90
2014,12,11,07,17,7.90
2014,12,11,07,18,7.90
2014,12,11,07,19,7.90
2014,12,11,07,20,7.90
2014,12,11,07,21,7.90
2014,12,11,07,22,7.90
2014,12,11,07,23,7.90
2014,12,11,07,24,7.90
2014,12,11,07,25,7.90
2014,12,11,07,26,7.90
2014,12,11,07,27,7.90
2014,12,11,07,28,7.90
2014,12,11,07,29,7.90
2014,12,11,09,29,8.30
2014,12,11,09,30,8.30
2014,12,11,09,31,8.30
2014,12,11,09,32,8.30
2014,12,11,09,33,8.30
2014,12,11,09,34,8.30
2014,12,11,09,35,8.20
2014,12,11,09,36,8.20
2014,12,11,09,37,8.20
2014,12,11,09,38,8.20
2014,12,11,09,39,8.20
2014,12,11,09,40,8.20
2014,12,11,09,41,8.20
2014,12,11,09,42,8.20
2014,12,11,09,43,8.10
2014,12,11,09,44,8.10
2014,12,11,09,45,8.10
2014,12,11,09,46,8.10
2014,12,11,09,47,8.10
2014,12,11,09,48,8.10
2014,12,11,09,49,8.10
2014,12,11,09,50,8.00
2014,12,11,09,51,8.00
2014,12,11,09,52,8.00
2014,12,11,09,53,8.00
2014,12,11,09,54,7.90
2014,12,11,09,55,7.90
2014,12,11,09,56,7.90
2014,12,11,09,57,7.90
2014,12,11,09,58,7.90
2014,12,11,09,59,7.90
2014,12,11,10,00,7.90
2014,12,11,10,01,7.90
2014,12,11,10,02,7.80
2014,12,11,10,03,7.80
2014,12,11,10,04,7.80
2014,12,11,10,05,7.80
2014,12,11,10,06,7.80
2014,12,11,10,07,7.80
2014,12,11,10,08,7.80
2014,12,11,10,09,7.80
2014,12,11,10,10,7.80
2014,12,11,10,11,7.80
2014,12,11,10,12,7.80
2014,12,11,10,13,7.80
2014,12,11,10,14,7.80
2014,12,11,10,15,7.80
2014,12,11,10,16,7.80
2014,12,11,10,17,7.80
2014,12,11,10,18,7.80
2014,12,11,10,19,7.90
2014,12,11,10,20,7.90
2014,12,11,10,21,7.90
2014,12,11,10,22,7.90
2014,12,11,10,23,7.80
2014,12,11,10,24,7.80
2014,12,11,10,25,7.80
2014,12,11,10,26,7.80
2014,12,11,10,27,7.80
2014,12,11,10,28,7.80
2014,12,11,10,29,7.80
2014,12,11,10,30,7.80
2014,12,11,10,31,7.80
2014,12,11,10,32,7.80
2014,12,11,10,33,7.80
2014,12,11,10,34,7.80
2014,12,11,10,35,7.80
2014,12,11,10,36,7.80
2014,12,11,10,37,7.80
2014,12,11,10,38,7.90
2014,12,11,10,39,7.90
2014,12,11,10,40,7.90
2014,12,11,10,41,7.90
2014,12,11,10,42,7.90
2014,12,11,10,43,7.90
2014,12,11,10,44,7.90
2014,12,11,10,45,7.90
2014,12,11,10,46,7.90
2014,12,11,10,47,7.90
2014,12,11,10,48,7.90
2014,12,11,10,49,7.90
2014,12,11,10,50,7.90
2014,12,11,10,51,7.90
2014,12,11,10,52,7.90
2014,12,11,10,53,7.90
2014,12,11,10,54,7.90
2014,12,11,10,55,7.90
2014,12,11,10,56,7.90
2014,12,11,10,57,7.90
2014,12,11,10,58,7.90
2014,12,11,10,59,7.80
2014,12,11,11,00,7.80
2014,12,11,11,01,7.90
2014,12,11,11,02,7.90
2014,12,11,11,03,7.90
2014,12,11,11,04,7.90
2014,12,11,11,05,7.90
2014,12,11,11,06,7.90
2014,12,11,11,07,7.90
2014,12,11,11,08,7.90
2014,12,11,11,09,7.90
2014,12,11,11,10,7.90
2014,12,11,11,11,7.90
2014,12,11,11,12,7.90
2014,12,11,11,13,7.90
2014,12,11,11,14,7.90
2014,12,11,11,15,7.90
2014,12,11,11,16,7.90
2014,12,11,11,17,7.90
2014,12,11,11,18,7.90
2014,12,11,11,19,7.90
2014,12,11,11,20,7.90
2014,12,11,11,21,7.90
2014,12,11,11,22,7.90
2014,12,11,11,23,7.90
2014,12,11,11,24,7.90
2014,12,11,11,25,8.00
2014,12,11,11,26,7.90
2014,12,11,11,27,7.90
2014,12,11,11,28,7.90
2014,12,11,11,29,7.90
2014,12,11,11,30,7.90
2014,12,11,11,31,7.90
2014,12,11,11,32,7.90
2014,12,11,11,33,7.90
2014,12,11,11,34,7.90
2014,12,11,11,35,7.90
2014,12,11,11,36,7.90
2014,12,11,11,37,7.90
2014,12,11,11,38,7.90
2014,12,11,11,39,7.90
2014,12,11,11,40,7.90
2014,12,11,11,41,7.90
2014,12,11,11,42,7.90
2014,12,11,11,43,7.90
2014,12,11,11,44,7.90
2014,12,11,11,45,7.90
2014,12,11,11,46,7.90
2014,12,11,11,47,7.90
2014,12,11,11,48,7.90
2014,12,11,11,49,7.90
2014,12,11,11,50,8.00
2014,12,11,11,51,8.00
2014,12,11,11,52,8.00
2014,12,11,11,53,8.00
2014,12,11,11,54,8.00
2014,12,11,11,55,8.00
2014,12,11,11,56,8.00
2014,12,11,11,57,8.00
2014,12,11,11,58,8.00
2014,12,11,11,59,8.00
2014,12,11,12,00,8.00
2014,12,11,12,01,8.00
2014,12,11,12,02,8.00
2014,12,11,12,03,8.00
2014,12,11,12,05,8.00
2014,12,11,12,06,8.00
2014,12,11,12,07,8.00
2014,12,11,12,10,8.00
2014,12,11,12,11,7.90
2014,12,11,12,13,7.90
2014,12,11,12,14,7.90
